N0HOT Weather Reports


time (UTC)temp
C
wind
direction
speed
KPH
gust
KPH
rain 1hr
cm
rain 24hr
cm
rain mn
cm
humidity
%
barometer
mb
20260503031014 13 185 3.2 3.2 0.00 0.00 0.00 34 1012.2
20260503030510 13 214 1.6 1.6 0.00 0.00 0.00 34 1012.2
20260503030008 13 212 1.6 1.6 0.00 0.00 0.00 34 1012.2
20260503025504 14 189 3.2 3.2 0.00 0.00 0.00 34 1012.5
20260503025002 14 209 3.2 3.2 0.00 0.00 0.00 33 1012.5
20260503024457 14 201 1.6 1.6 0.00 0.00 0.00 34 1012.5
20260503023955 14 229 1.6 1.6 0.00 0.00 0.00 32 1012.5
20260503023452 14 235 3.2 3.2 0.00 0.00 0.00 32 1012.2
20260503022949 14 214 1.6 1.6 0.00 0.00 0.00 32 1012.2
20260503022444 14 227 3.2 3.2 0.00 0.00 0.00 32 1012.2
20260503021940 14 218 1.6 1.6 0.00 0.00 0.00 31 1012.2
20260503021436 14 216 1.6 1.6 0.00 0.00 0.00 32 1012.2
20260503020934 15 205 1.6 1.6 0.00 0.00 0.00 32 1012.2
20260503020432 15 227 1.6 1.6 0.00 0.00 0.00 31 1012.2
20260503015928 15 212 1.6 3.2 0.00 0.00 0.00 31 1012.5
20260503015425 15 208 1.6 3.2 0.00 0.00 0.00 31 1012.2
20260503014920 15 199 3.2 3.2 0.00 0.00 0.00 32 1012.2
20260503014418 15 217 1.6 3.2 0.00 0.00 0.00 31 1012.2
20260503013916 15 207 3.2 3.2 0.00 0.00 0.00 32 1012.2
20260503013413 15 196 3.2 3.2 0.00 0.00 0.00 30 1012.2
20260503012910 15 190 1.6 3.2 0.00 0.00 0.00 29 1011.8
20260503012408 15 198 3.2 3.2 0.00 0.00 0.00 29 1011.8
20260503011904 15 194 3.2 4.8 0.00 0.00 0.00 29 1012.2
20260503011400 16 202 3.2 3.2 0.00 0.00 0.00 29 1012.2
20260503010857 16 202 3.2 3.2 0.00 0.00 0.00 29 1012.2
20260503010354 16 173 3.2 4.8 0.00 0.00 0.00 28 1011.8
20260503005851 16 189 3.2 3.2 0.00 0.00 0.00 29 1012.2
20260503005349 16 194 1.6 1.6 0.00 0.00 0.00 28 1012.2
20260503004845 16 198 1.6 3.2 0.00 0.00 0.00 28 1012.2
20260503004342 16 190 3.2 3.2 0.00 0.00 0.00 27 1012.2
20260503003839 16 155 3.2 4.8 0.00 0.00 0.00 28 1011.8
20260503003336 16 181 3.2 3.2 0.00 0.00 0.00 27 1012.2
20260503002833 16 200 3.2 4.8 0.00 0.00 0.00 27 1012.2
20260503002331 16 187 3.2 3.2 0.00 0.00 0.00 26 1012.2
20260503001827 17 176 3.2 4.8 0.00 0.00 0.00 26 1012.2
20260503001323 17 200 4.8 4.8 0.00 0.00 0.00 26 1012.2
20260503000821 17 169 3.2 3.2 0.00 0.00 0.00 26 1012.2
20260503000319 17 164 8.0 11.3 0.00 0.00 0.00 25 1012.5
20260502235815 17 174 4.8 4.8 0.00 0.00 0.00 26 1012.2
20260502235312 17 190 6.4 6.4 0.00 0.00 0.00 25 1012.2
20260502234809 17 167 3.2 4.8 0.00 0.00 0.00 24 1012.2
20260502234306 17 188 4.8 4.8 0.00 0.00 0.00 25 1012.2
20260502233802 17 170 3.2 3.2 0.00 0.00 0.00 24 1012.2
20260502233259 17 166 3.2 3.2 0.00 0.00 0.00 25 1012.5
20260502232755 17 186 6.4 6.4 0.00 0.00 0.00 25 1012.5
20260502232252 17 144 6.4 6.4 0.00 0.00 0.00 24 1012.5
20260502231748 17 165 6.4 9.7 0.00 0.00 0.00 22 1012.5
20260502231246 18 181 6.4 6.4 0.00 0.00 0.00 25 1012.5
20260502230745 18 169 6.4 6.4 0.00 0.00 0.00 24 1012.5
20260502230242 18 178 4.8 6.4 0.00 0.00 0.00 23 1012.5
20260502225738 18 169 4.8 6.4 0.00 0.00 0.00 22 1012.5
20260502225236 18 148 6.4 6.4 0.00 0.00 0.00 22 1012.5
20260502224732 18 160 3.2 4.8 0.00 0.00 0.00 23 1012.5
20260502224229 18 182 6.4 6.4 0.00 0.00 0.00 23 1012.8
20260502223726 18 187 6.4 9.7 0.00 0.00 0.00 21 1012.5
20260502223224 18 183 3.2 6.4 0.00 0.00 0.00 21 1012.8
20260502222721 18 203 3.2 3.2 0.00 0.00 0.00 24 1012.8
20260502222218 18 150 8.0 12.9 0.00 0.00 0.00 22 1012.8
20260502221714 18 169 4.8 6.4 0.00 0.00 0.00 22 1012.8
20260502221211 18 195 9.7 12.9 0.00 0.00 0.00 22 1012.8
20260502220707 18 179 3.2 4.8 0.00 0.00 0.00 22 1013.2
20260502220203 18 87 1.6 4.8 0.00 0.00 0.00 23 1013.2
20260502215701 18 103 8.0 11.3 0.00 0.00 0.00 21 1013.2
20260502215157 18 155 6.4 11.3 0.00 0.00 0.00 21 1013.6
20260502214655 18 164 6.4 9.7 0.00 0.00 0.00 22 1013.6
20260502214152 18 172 4.8 6.4 0.00 0.00 0.00 21 1013.2
20260502213649 18 169 3.2 4.8 0.00 0.00 0.00 22 1013.6
20260502213146 18 191 8.0 12.9 0.00 0.00 0.00 21 1013.6
20260502212645 18 160 4.8 6.4 0.00 0.00 0.00 20 1013.6
20260502212143 18 154 9.7 14.5 0.00 0.00 0.00 20 1013.6
20260502211638 18 199 8.0 9.7 0.00 0.00 0.00 21 1013.9
20260502211135 18 168 12.9 17.7 0.00 0.00 0.00 19 1013.9
20260502210633 18 176 6.4 9.7 0.00 0.00 0.00 20 1013.9
20260502210130 18 159 9.7 14.5 0.00 0.00 0.00 19 1013.9
20260502205626 18 91 3.2 4.8 0.00 0.00 0.00 21 1014.3
20260502205123 18 171 16.1 17.7 0.00 0.00 0.00 18 1013.9
20260502204620 18 195 4.8 4.8 0.00 0.00 0.00 20 1013.9
20260502204118 18 171 3.2 6.4 0.00 0.00 0.00 21 1014.6
20260502203615 18 174 6.4 6.4 0.00 0.00 0.00 21 1014.3
20260502203112 18 90 3.2 4.8 0.00 0.00 0.00 21 1014.6
20260502202607 18 185 8.0 9.7 0.00 0.00 0.00 20 1014.6
20260502202105 18 203 9.7 11.3 0.00 0.00 0.00 23 1015.0
20260502201556 18 235 4.8 4.8 0.00 0.00 0.00 19 1015.0
20260502201053 18 158 8.0 12.9 0.00 0.00 0.00 20 1015.0
20260502200548 18 232 6.4 9.7 0.00 0.00 0.00 19 1015.0
20260502200047 18 120 3.2 3.2 0.00 0.00 0.00 20 1015.0
20260502195544 18 174 6.4 11.3 0.00 0.00 0.00 20 1015.3
20260502195040 18 188 3.2 3.2 0.00 0.00 0.00 24 1015.3
20260502194536 18 191 3.2 4.8 0.00 0.00 0.00 21 1015.6
20260502194032 18 218 6.4 9.7 0.00 0.00 0.00 20 1015.3
20260502193530 18 226 4.8 9.7 0.00 0.00 0.00 21 1015.3
20260502193027 18 171 4.8 6.4 0.00 0.00 0.00 20 1015.6
20260502192522 18 152 6.4 9.7 0.00 0.00 0.00 19 1015.6
20260502192020 18 54 3.2 3.2 0.00 0.00 0.00 20 1015.6
20260502191517 18 185 3.2 4.8 0.00 0.00 0.00 22 1015.6
20260502191015 18 227 8.0 9.7 0.00 0.00 0.00 20 1016.0
20260502190512 18 203 4.8 6.4 0.00 0.00 0.00 21 1016.0
20260502190008 17 143 4.8 6.4 0.00 0.00 0.00 20 1016.0
20260502185503 17 162 3.2 6.4 0.00 0.00 0.00 25 1016.0
20260502185001 17 168 8.0 11.3 0.00 0.00 0.00 22 1016.3
20260502184455 17 255 9.7 14.5 0.00 0.00 0.00 22 1016.7
20260502183953 17 248 1.6 1.6 0.00 0.00 0.00 20 1016.7
20260502183449 17 167 8.0 9.7 0.00 0.00 0.00 23 1016.3
20260502182944 17 175 12.9 16.1 0.00 0.00 0.00 23 1016.7
20260502182440 17 242 3.2 4.8 0.00 0.00 0.00 25 1017.0
20260502181936 17 155 6.4 9.7 0.00 0.00 0.00 24 1016.7
20260502181434 17 174 9.7 14.5 0.00 0.00 0.00 22 1016.7
20260502180933 17 104 4.8 4.8 0.00 0.00 0.00 22 1016.7
20260502180430 17 179 3.2 6.4 0.00 0.00 0.00 22 1017.0
20260502170349 16 103 8.0 11.3 0.00 0.00 0.00 23 1017.8
20260502164336 15 191 4.8 6.4 0.00 0.00 0.00 22 1018.1
20260502163832 15 172 3.2 4.8 0.00 0.00 0.00 24 1018.1
20260502163328 15 173 4.8 11.3 0.00 0.00 0.00 23 1018.1
20260502162826 15 83 3.2 3.2 0.00 0.00 0.00 24 1018.5
20260502162322 15 208 8.0 9.7 0.00 0.00 0.00 24 1018.5
20260502161819 15 192 3.2 4.8 0.00 0.00 0.00 25 1018.5
20260502161310 15 193 3.2 4.8 0.00 0.00 0.00 26 1018.5
20260502160808 15 190 9.7 14.5 0.00 0.00 0.00 27 1018.8
20260502160306 15 157 6.4 6.4 0.00 0.00 0.00 24 1018.5
20260502152241 14 234 6.4 11.3 0.00 0.00 0.00 30 1019.1
20260502151739 13 175 4.8 6.4 0.00 0.00 0.00 32 1019.5
20260502151235 13 191 9.7 11.3 0.00 0.00 0.00 31 1019.5
20260502150733 13 148 6.4 6.4 0.00 0.00 0.00 32 1019.5
20260502150229 12 193 1.6 3.2 0.00 0.00 0.00 34 1019.5
20260502130618 2 172 0.0 0.0 0.00 0.00 0.00 63 1022.3
20260502130116 1 178 0.0 0.0 0.00 0.00 0.00 66 1022.3
20260502123601 0 204 0.0 0.0 0.00 0.00 0.00 71 1022.3
20260502123058 0 213 0.0 0.0 0.00 0.00 0.00 73 1022.3
20260502122554 0 212 0.0 0.0 0.00 0.00 0.00 73 1022.3
20260502122052 0 213 0.0 0.0 0.00 0.00 0.00 74 1022.3
20260502121549 0 213 0.0 0.0 0.00 0.00 0.00 73 1022.3
20260502121047 0 217 0.0 0.0 0.00 0.00 0.00 73 1022.3
20260502120542 0 219 0.0 0.0 0.00 0.00 0.00 73 1022.3
20260502115538 0 219 0.0 0.0 0.00 0.00 0.00 73 1022.3
20260502115033 -1 219 0.0 0.0 0.00 0.00 0.00 77 1022.3
20260502114524 -1 219 0.0 0.0 0.00 0.00 0.00 78 1022.3
20260502114021 -1 219 0.0 0.0 0.00 0.00 0.00 77 1022.3
20260502113519 -2 219 0.0 0.0 0.00 0.00 0.00 77 1022.3
20260502113017 -2 219 0.0 0.0 0.00 0.00 0.00 76 1022.3
20260502112515 -2 219 0.0 0.0 0.00 0.00 0.00 75 1022.3
20260502112012 -2 219 0.0 0.0 0.00 0.00 0.00 75 1022.3
20260502111509 -2 219 0.0 0.0 0.00 0.00 0.00 75 1021.9
20260502111007 -2 219 0.0 0.0 0.00 0.00 0.00 75 1021.9
20260502110504 -2 219 0.0 0.0 0.00 0.00 0.00 75 1021.9
20260502110002 -2 219 0.0 0.0 0.00 0.00 0.00 75 1022.3
20260502105459 -2 219 0.0 0.0 0.00 0.00 0.00 75 1021.9
20260502104956 -2 219 0.0 0.0 0.00 0.00 0.00 74 1022.3
20260502104453 -1 219 0.0 0.0 0.00 0.00 0.00 74 1021.9
20260502103950 -1 219 0.0 0.0 0.00 0.00 0.00 74 1022.3
20260502103447 -1 219 0.0 0.0 0.00 0.00 0.00 74 1021.9
20260502102939 -1 219 0.0 0.0 0.00 0.00 0.00 74 1022.3
20260502102436 -1 219 0.0 0.0 0.00 0.00 0.00 74 1022.3
20260502101932 -1 219 0.0 0.0 0.00 0.00 0.00 74 1022.3
20260502101431 -1 219 0.0 0.0 0.00 0.00 0.00 73 1021.9
20260502100929 -1 219 0.0 0.0 0.00 0.00 0.00 73 1021.9
20260502100428 -1 219 0.0 0.0 0.00 0.00 0.00 73 1022.3
20260502091403 -1 219 0.0 0.0 0.00 0.00 0.00 71 1021.6
20260502090859 -1 219 0.0 0.0 0.00 0.00 0.00 71 1021.9
20260502090356 0 219 0.0 0.0 0.00 0.00 0.00 71 1021.6
20260502071250 0 219 0.0 0.0 0.00 0.00 0.00 65 1021.6
20260502070749 0 219 0.0 0.0 0.00 0.00 0.00 64 1021.6
20260502070246 0 219 0.0 0.0 0.00 0.00 0.00 63 1021.6
20260502065745 0 219 0.0 0.0 0.00 0.00 0.00 62 1021.6
20260502065243 0 219 0.0 0.0 0.00 0.00 0.00 62 1021.6
20260502064741 0 219 0.0 1.6 0.00 0.00 0.00 62 1021.2
20260502064238 0 219 0.0 0.0 0.00 0.00 0.00 62 1021.2
20260502063735 1 219 0.0 0.0 0.00 0.00 0.00 62 1021.2
20260502063233 1 219 0.0 0.0 0.00 0.00 0.00 61 1021.6
20260502062730 1 219 0.0 0.0 0.00 0.00 0.00 61 1021.2
20260502062228 1 219 0.0 0.0 0.00 0.00 0.00 61 1021.6
20260502061726 1 219 0.0 0.0 0.00 0.00 0.00 59 1021.6
20260502061224 1 219 0.0 0.0 0.00 0.00 0.00 60 1021.2
20260502060718 1 219 0.0 0.0 0.00 0.00 0.00 60 1021.2
20260502060215 1 219 0.0 0.0 0.00 0.00 0.00 60 1021.2
20260502055713 1 219 0.0 0.0 0.00 0.00 0.00 59 1021.2
20260502055210 1 219 0.0 0.0 0.00 0.00 0.00 59 1021.2
20260502054709 1 219 0.0 0.0 0.00 0.00 0.00 58 1021.2
20260502054206 1 219 0.0 0.0 0.00 0.00 0.00 57 1021.2
20260502053704 2 219 0.0 0.0 0.00 0.00 0.00 57 1021.2
20260502053200 2 219 0.0 0.0 0.00 0.00 0.00 56 1020.8
20260502052659 2 219 0.0 0.0 0.00 0.00 0.00 56 1021.2
20260502052157 2 219 0.0 0.0 0.00 0.00 0.00 55 1021.2
20260502051654 2 219 0.0 0.0 0.00 0.00 0.00 55 1020.8
20260502051152 2 219 0.0 0.0 0.00 0.00 0.00 55 1020.8
20260502050648 2 219 0.0 0.0 0.00 0.00 0.00 54 1020.8
20260502050145 2 219 0.0 0.0 0.00 0.00 0.00 52 1020.8
20260502045642 2 219 0.0 0.0 0.00 0.00 0.00 53 1020.5
20260502045139 2 219 0.0 0.0 0.00 0.00 0.00 53 1020.5
20260502044636 2 219 0.0 0.0 0.00 0.00 0.00 52 1020.5
20260502044132 3 219 0.0 0.0 0.00 0.00 0.00 51 1020.5
20260502043630 3 219 0.0 0.0 0.00 0.00 0.00 51 1020.5
20260502043127 3 219 0.0 0.0 0.00 0.00 0.00 50 1020.5
20260502042626 3 219 0.0 0.0 0.00 0.00 0.00 49 1020.5
20260502042124 3 219 0.0 0.0 0.00 0.00 0.00 49 1020.5
20260502041622 3 219 0.0 0.0 0.00 0.00 0.00 49 1020.1
20260502041119 3 219 0.0 0.0 0.00 0.00 0.00 49 1020.5
20260502040615 4 219 0.0 0.0 0.00 0.00 0.00 48 1020.5
20260502040113 4 219 0.0 0.0 0.00 0.00 0.00 47 1020.5
20260502035609 4 219 0.0 0.0 0.00 0.00 0.00 47 1020.5
20260502035106 5 218 0.0 0.0 0.00 0.00 0.00 47 1020.1
20260502034604 5 218 0.0 0.0 0.00 0.00 0.00 47 1020.1
20260502034102 5 218 0.0 0.0 0.00 0.00 0.00 45 1020.5
20260502033559 5 218 0.0 0.0 0.00 0.00 0.00 46 1020.1
20260502033057 5 219 0.0 0.0 0.00 0.00 0.00 43 1020.1
20260502032552 5 219 0.0 0.0 0.00 0.00 0.00 43 1020.1
20260502032049 6 218 0.0 0.0 0.00 0.00 0.00 43 1020.1
20260502031547 6 219 0.0 0.0 0.00 0.00 0.00 42 1020.1